DECAYED
Showing default

TELEOS 1, 41169 (Decayed)

Orbit data source: Space-Track

TELEOS 1, 41169 was a payload satellite owned by AgilSpace (SG) in LEO that was launched on Wed, 16 Dec 2015 UTC via a PSLV launch vehicle from the Sirharikota (SRI). Payload-class satellites include a variety of spacecraft equipped with specific instruments for various scientific and technological missions. These include communications satellites like Starlink; space stations such as the ISS; scientific satellites like the Hubble; Earth observation satellites from companies like Planet Labs, Umbra, and HawkEye 360; GPS; miniature CubeSats for education and research; and military/defense satellites.

Not visible in the next 10 days
Identifier
41169, 2015-077D
Orbit
Decayed
Country
Flag of SGSG / SING
Related business
Manufacturer
STE Sat Sys
Mission
Decayed Commercial Imaging
Bus & Motor
SS-400, Unknown motor
Mass
400 kg wet, 400 kg dry
Launch date (UTC)
2015-12-16 (10 years ago)
Launch vehicle
PSLV
Launch site
Sirharikota (SRI)
Object type
Payload
Rocket body
Debris
Shape & HBR
Hex Cyl + 4 Pan, 2.0 m
Radar Cross Section
5.312 m², Large (>1 m²)

Expand to show TLE details & history
Last TLE update: 9 months ago

TLE from 9 months ago
0 TELEOS 1
1 41169U 15077D   25177.62803816  .04978187 -27512-4  80740-3 0  9995
2 41169  14.9820 136.7861 0000764 246.8638 291.1774 16.32314160529153
Epoch: 2025-06-26T15:04Z
TLE epoch observation values (Epoch: 2025-06-26T15:04:22.497Z)
Latitude
0.50261°
Longitude
173.83211°
Altitude
183.191 km
Speed
7.8 km/s
True Right ascension
20h 59m 40s
True Declination
0° 29' 58"
Sunlit
Object was in full shadow at epoch
Visualization orbit readout
Latitude
Unknown
Longitude
Unknown
Altitude
Unknown
Speed
Unknown
Apparent Right ascension
Unknown
Apparent Declination
Unknown
Sunlit
N/A
Visualization observer readout
Local Sidereal Time
10:50:07
Azimuth
Unknown
Elevation
Unknown
Doppler factor
Unknown
Orbital elements
Apogee altitude
192.875 km
Perigee altitude
191.871 km
Semi-major axis
6,570.51 km
Eccentricity
0.00008
Inclination
14.982°
RAAN
136.7861°
Arg. of periapsis
246.8638°
True anomaly
291.16924°
Mean anomaly
291.1774°
Eccentric anomaly
291.17332°
Mean motion
4.07516 °/min
Orbital period
88.34 mins
BSTAR
0.0008074
Loading maneuver chart data...
Computing Atmospheric mass density...
Loading historical data...
Loading historical data...
Loading historical data...
Loading historical data...
Loading historical data...
Loading historical data...
Loading historical data...

Documentation

Showing up to 5 results
|